,,Stat6,,Stat2,,Stat8,,Stat9,,Stat10,,Wind1,,Wind1,
time,status,PA1M_AVG,status,PR1M_SUM,status,RH1M_AVG,status,SR1M_AVG,status,TA1M_AVG,status,W1dAve1m,status,W1sAve1m,
2008-11-15, 07:00:03,VALID,915.385,VALID,0,VALID,100,VALID,49.9746,VALID,19.4273,VALID,157,VALID,0,
2008-11-15, 07:01:00,VALID,915.384,VALID,0,VALID,100,VALID,51.0104,VALID,19.4467,VALID,157,VALID,0,
2008-11-15, 07:02:00,VALID,915.398,VALID,0,VALID,100,VALID,51.9953,VALID,19.4597,VALID,157,VALID,0,
2008-11-15, 07:03:00,VALID,915.399,VALID,0,VALID,100,VALID,53.0991,VALID,19.4822,VALID,157,VALID,0,
2008-11-15, 07:04:00,VALID,915.394,VALID,0,VALID,100,VALID,54.1688,VALID,19.4887,VALID,157,VALID,0,
2008-11-15, 07:05:00,VALID,915.412,VALID,0,VALID,100,VALID,55.3235,VALID,19.5214,VALID,157,VALID,0,
2008-11-15, 07:06:00,VALID,915.404,VALID,0,VALID,100,VALID,56.5631,VALID,19.5538,VALID,157,VALID,0,
2008-11-15, 07:07:00,VALID,915.415,VALID,0,VALID,100,VALID,57.8197,VALID,19.5818,VALID,157,VALID,0,
2008-11-15, 07:08:00,VALID,915.431,VALID,0,VALID,100,VALID,59.0084,VALID,19.6142,VALID,157,VALID,0,
2008-11-15, 07:09:00,VALID,915.452,VALID,0,VALID,100,VALID,60.0272,VALID,19.6499,VALID,157,VALID,0,
2008-11-15, 07:10:00,VALID,915.48,VALID,0,VALID,100,VALID,61.0291,VALID,19.6753,VALID,157,VALID,0,
2008-11-15, 07:11:00,VALID,915.485,VALID,0,VALID,100,VALID,61.9631,VALID,19.721,VALID,157,VALID,0,
2008-11-15, 07:12:00,VALID,915.512,VALID,0,VALID,100,VALID,62.863,VALID,19.7535,VALID,157,VALID,0,
2008-11-15, 07:13:00,VALID,915.539,VALID,0,VALID,100,VALID,63.797,VALID,19.754,VALID,157,VALID,0,
2008-11-15, 07:14:00,VALID,915.565,VALID,0,VALID,100,VALID,64.629,VALID,19.731,VALID,157,VALID,0,
2008-11-15, 07:15:00,VALID,915.58,VALID,0,VALID,100,VALID,65.4611,VALID,19.7472,VALID,157,VALID,0,
2008-11-15, 07:16:00,VALID,915.602,VALID,0,VALID,100,VALID,66.3101,VALID,19.7629,VALID,157,VALID,0,
2008-11-15, 07:17:00,VALID,915.617,VALID,0,VALID,100,VALID,67.1082,VALID,19.7629,VALID,157,VALID,0,
2008-11-15, 07:18:00,VALID,915.629,VALID,0,VALID,100,VALID,67.9403,VALID,19.7924,VALID,157,VALID,0,
2008-11-15, 07:19:00,VALID,915.649,VALID,0,VALID,100,VALID,68.8912,VALID,19.8251,VALID,157,VALID,0,
2008-11-15, 07:20:00,VALID,915.662,VALID,0,VALID,100,VALID,70.012,VALID,19.7994,VALID,152,VALID,0,
2008-11-15, 07:21:00,VALID,915.676,VALID,0,VALID,100,VALID,71.1327,VALID,19.7862,VALID,158,VALID,0,
2008-11-15, 07:22:00,VALID,915.696,VALID,0,VALID,100,VALID,72.3893,VALID,19.7634,VALID,165,VALID,0,
2008-11-15, 07:23:00,VALID,915.695,VALID,0,VALID,100,VALID,73.6459,VALID,19.7532,VALID,149,VALID,0,
2008-11-15, 07:24:00,VALID,915.694,VALID,0,VALID,100,VALID,75.1232,VALID,19.7632,VALID,143,VALID,0,
2008-11-15, 07:25:00,VALID,915.711,VALID,0,VALID,100,VALID,76.6854,VALID,19.7737,VALID,165,VALID,0,
2008-11-15, 07:26:00,VALID,915.71,VALID,0,VALID,100,VALID,78.3496,VALID,19.7697,VALID,169,VALID,0,
2008-11-15, 07:27:00,VALID,915.737,VALID,0,VALID,100,VALID,79.8778,VALID,19.7734,VALID,169,VALID,0,
2008-11-15, 07:28:00,VALID,915.747,VALID,0,VALID,100,VALID,81.5419,VALID,19.7832,VALID,169,VALID,0,
2008-11-15, 07:29:00,VALID,915.757,VALID,0,VALID,100,VALID,83.1042,VALID,19.7799,VALID,169,VALID,0,
2008-11-15, 07:30:00,VALID,915.772,VALID,0,VALID,100,VALID,84.7683,VALID,19.7929,VALID,169,VALID,0,
2008-11-15, 07:31:00,VALID,915.777,VALID,0,VALID,100,VALID,86.5683,VALID,19.8154,VALID,169,VALID,0,
2008-11-15, 07:32:00,VALID,915.785,VALID,0,VALID,100,VALID,88.538,VALID,19.8613,VALID,169,VALID,0,
2008-11-15, 07:33:00,VALID,915.771,VALID,0,VALID,100,VALID,90.5927,VALID,19.884,VALID,169,VALID,0,
2008-11-15, 07:34:00,VALID,915.781,VALID,0,VALID,100,VALID,92.6814,VALID,19.9192,VALID,169,VALID,0,
2008-11-15, 07:35:00,VALID,915.77,VALID,0,VALID,100,VALID,94.7361,VALID,19.9481,VALID,169,VALID,0,
2008-11-15, 07:36:00,VALID,915.776,VALID,0,VALID,100,VALID,96.6379,VALID,19.9616,VALID,169,VALID,0,
2008-11-15, 07:37:00,VALID,915.784,VALID,0,VALID,100,VALID,98.336,VALID,19.9818,VALID,169,VALID,0,
2008-11-15, 07:38:00,VALID,915.783,VALID,0,VALID,100,VALID,99.8982,VALID,19.9918,VALID,169,VALID,0,
2008-11-15, 07:39:00,VALID,915.801,VALID,0,VALID,100,VALID,101.308,VALID,20.0086,VALID,169,VALID,0,
2008-11-15, 07:40:00,VALID,915.803,VALID,0,VALID,100,VALID,102.632,VALID,20.0148,VALID,163,VALID,0,
2008-11-15, 07:41:00,VALID,915.82,VALID,0,VALID,100,VALID,104.16,VALID,20.0318,VALID,170,VALID,0,
2008-11-15, 07:42:00,VALID,915.828,VALID,0,VALID,100,VALID,105.842,VALID,20.0545,VALID,174,VALID,0,
2008-11-15, 07:43:00,VALID,915.826,VALID,0,VALID,100,VALID,107.625,VALID,20.0607,VALID,177,VALID,0,
2008-11-15, 07:44:00,VALID,915.831,VALID,0,VALID,100,VALID,109.577,VALID,20.0964,VALID,177,VALID,0,
2008-11-15, 07:45:00,VALID,915.829,VALID,0,VALID,100,VALID,111.649,VALID,20.0997,VALID,175,VALID,0,
2008-11-15, 07:46:00,VALID,915.84,VALID,0,VALID,100,VALID,113.738,VALID,20.1064,VALID,169,VALID,0,
2008-11-15, 07:47:00,VALID,915.844,VALID,0,VALID,100,VALID,115.69,VALID,20.1291,VALID,169,VALID,0,
2008-11-15, 07:48:00,VALID,915.868,VALID,0,VALID,100,VALID,117.626,VALID,20.1778,VALID,169,VALID,0,
2008-11-15, 07:49:00,VALID,915.884,VALID,0,VALID,100,VALID,119.426,VALID,20.2392,VALID,169,VALID,0,
2008-11-15, 07:50:00,VALID,915.893,VALID,0,VALID,100,VALID,121.226,VALID,20.2849,VALID,169,VALID,0,
2008-11-15, 07:51:00,VALID,915.901,VALID,0,VALID,100,VALID,123.111,VALID,20.2976,VALID,169,VALID,0,
2008-11-15, 07:52:00,VALID,915.909,VALID,0,VALID,100,VALID,125.336,VALID,20.3116,VALID,169,VALID,0,
2008-11-15, 07:53:00,VALID,915.923,VALID,0,VALID,100,VALID,127.645,VALID,20.3824,VALID,169,VALID,0,
2008-11-15, 07:54:00,VALID,915.937,VALID,0,VALID,100,VALID,130.09,VALID,20.4314,VALID,169,VALID,0,
2008-11-15, 07:55:00,VALID,915.933,VALID,0,VALID,100,VALID,132.671,VALID,20.4379,VALID,169,VALID,0,
2008-11-15, 07:56:00,VALID,915.941,VALID,0,VALID,99.8405,VALID,135.354,VALID,20.3792,VALID,160,VALID,0,
2008-11-15, 07:57:00,VALID,915.942,VALID,0,VALID,99.8108,VALID,137.969,VALID,20.35,VALID,167,VALID,0,
2008-11-15, 07:58:00,VALID,915.964,VALID,0,VALID,99.5361,VALID,140.567,VALID,20.3435,VALID,160,VALID,0,
2008-11-15, 07:59:00,VALID,915.956,VALID,0,VALID,99.5514,VALID,143.047,VALID,20.3432,VALID,160,VALID,0,
2008-11-15, 08:00:00,VALID,915.966,VALID,0,VALID,99.6735,VALID,145.628,VALID,20.3794,VALID,160,VALID,0,
2008-11-15, 08:01:00,VALID,915.973,VALID,0,VALID,99.898,VALID,148.362,VALID,20.4349,VALID,150,VALID,0,
2008-11-15, 08:02:00,VALID,915.974,VALID,0,VALID,100,VALID,151.35,VALID,20.4865,VALID,145,VALID,0,
2008-11-15, 08:03:00,VALID,915.985,VALID,0,VALID,100,VALID,154.271,VALID,20.5417,VALID,147,VALID,0,
2008-11-15, 08:04:00,VALID,915.987,VALID,0,VALID,99.7065,VALID,157.378,VALID,20.5579,VALID,164,VALID,0,
2008-11-15, 08:05:00,VALID,915.997,VALID,0,VALID,99.5107,VALID,160.825,VALID,20.5539,VALID,164,VALID,0,
2008-11-15, 08:06:00,VALID,916.003,VALID,0,VALID,99.7319,VALID,164.29,VALID,20.6163,VALID,164,VALID,0,
2008-11-15, 08:07:00,VALID,915.995,VALID,0,VALID,99.9423,VALID,167.652,VALID,20.681,VALID,67,VALID,0,
2008-11-15, 08:08:00,VALID,916.014,VALID,0,VALID,99.5628,VALID,170.878,VALID,20.7105,VALID,53,VALID,0,
2008-11-15, 08:09:00,VALID,916.017,VALID,0,VALID,99.8349,VALID,173.986,VALID,20.7856,VALID,52,VALID,0,
2008-11-15, 08:10:00,VALID,916.026,VALID,0,VALID,100,VALID,176.923,VALID,20.886,VALID,52,VALID,0,
2008-11-15, 08:11:00,VALID,916.027,VALID,0,VALID,99.9435,VALID,179.691,VALID,20.9701,VALID,44,VALID,0,
2008-11-15, 08:12:00,VALID,916.014,VALID,0,VALID,99.5895,VALID,182.578,VALID,21.0061,VALID,42,VALID,0,
2008-11-15, 08:13:00,VALID,916.031,VALID,0,VALID,98.8482,VALID,185.617,VALID,20.9863,VALID,42,VALID,0,
2008-11-15, 08:14:00,VALID,916.025,VALID,0,VALID,98.3675,VALID,188.674,VALID,20.9509,VALID,42,VALID,0,
2008-11-15, 08:15:00,VALID,916.039,VALID,0,VALID,98.2785,VALID,191.612,VALID,20.9668,VALID,43,VALID,0,
2008-11-15, 08:16:00,VALID,916.041,VALID,0,VALID,97.9606,VALID,194.566,VALID,20.9704,VALID,43,VALID,0,
2008-11-15, 08:17:00,VALID,916.046,VALID,0,VALID,97.9492,VALID,197.827,VALID,20.999,VALID,43,VALID,0,
2008-11-15, 08:18:00,VALID,916.044,VALID,0,VALID,97.6313,VALID,201.902,VALID,21.0293,VALID,43,VALID,0,
2008-11-15, 08:19:00,VALID,916.051,VALID,0,VALID,97.6961,VALID,205.621,VALID,21.0483,VALID,43,VALID,0,
2008-11-15, 08:20:00,VALID,916.061,VALID,0,VALID,98.1017,VALID,208.389,VALID,21.1389,VALID,43,VALID,0,
2008-11-15, 08:21:00,VALID,916.052,VALID,0,VALID,98.2442,VALID,211.004,VALID,21.256,VALID,43,VALID,0,
2008-11-15, 08:22:00,VALID,916.057,VALID,0,VALID,97.9415,VALID,213.924,VALID,21.332,VALID,46,VALID,0,
2008-11-15, 08:23:00,VALID,916.055,VALID,0,VALID,97.0565,VALID,217.457,VALID,21.2898,VALID,49,VALID,0,
2008-11-15, 08:24:00,VALID,916.057,VALID,0,VALID,97.026,VALID,220.989,VALID,21.2874,VALID,51,VALID,0,
2008-11-15, 08:25:00,VALID,916.05,VALID,0,VALID,97.2332,VALID,223.773,VALID,21.3095,VALID,37,VALID,0,
2008-11-15, 08:26:00,VALID,916.052,VALID,0,VALID,97.5537,VALID,226.117,VALID,21.3764,VALID,32,VALID,0,
2008-11-15, 08:27:00,VALID,916.055,VALID,0,VALID,97.499,VALID,229.53,VALID,21.4278,VALID,32,VALID,0,
2008-11-15, 08:28:00,VALID,916.066,VALID,0,VALID,96.9967,VALID,232.875,VALID,21.4965,VALID,24,VALID,0,
2008-11-15, 08:29:00,VALID,916.072,VALID,0,VALID,96.0761,VALID,236.051,VALID,21.4873,VALID,18,VALID,0,
2008-11-15, 08:30:00,VALID,916.077,VALID,0,VALID,95.8599,VALID,239.192,VALID,21.4908,VALID,27,VALID,0,
2008-11-15, 08:31:00,VALID,916.094,VALID,0,VALID,95.3475,VALID,243.098,VALID,21.5168,VALID,26,VALID,0,
2008-11-15, 08:32:00,VALID,916.116,VALID,0,VALID,95.2686,VALID,245.509,VALID,21.5619,VALID,12,VALID,0,
2008-11-15, 08:33:00,VALID,916.124,VALID,0,VALID,94.9469,VALID,246.664,VALID,21.6039,VALID,12,VALID,0,
2008-11-15, 08:34:00,VALID,916.129,VALID,0,VALID,95.4606,VALID,246.63,VALID,21.6593,VALID,12,VALID,0,
2008-11-15, 08:35:00,VALID,916.137,VALID,0,VALID,96.0278,VALID,245.39,VALID,21.7927,VALID,27,VALID,0,
2008-11-15, 08:36:00,VALID,916.156,VALID,0,VALID,95.7277,VALID,244.932,VALID,21.8966,VALID,338,VALID,0,
2008-11-15, 08:37:00,VALID,916.18,VALID,0,VALID,95.6119,VALID,244.456,VALID,21.961,VALID,316,VALID,0,
2008-11-15, 08:38:00,VALID,916.173,VALID,0,VALID,95.4708,VALID,244.558,VALID,21.9778,VALID,289,VALID,0,
2008-11-15, 08:39:00,VALID,916.185,VALID,0,VALID,95.4835,VALID,245.865,VALID,21.9353,VALID,281,VALID,0,
2008-11-15, 08:40:00,VALID,916.181,VALID,0,VALID,96.1231,VALID,248.922,VALID,21.9267,VALID,293,VALID,0,
2008-11-15, 08:41:00,VALID,916.17,VALID,0,VALID,96.1219,VALID,248.973,VALID,21.9326,VALID,288,VALID,0,
2008-11-15, 08:42:00,VALID,916.177,VALID,0,VALID,95.9095,VALID,247.954,VALID,21.9063,VALID,276,VALID,0,
2008-11-15, 08:43:00,VALID,916.175,VALID,0,VALID,96.3876,VALID,248.413,VALID,21.9199,VALID,275,VALID,0,
2008-11-15, 08:44:00,VALID,916.171,VALID,0,VALID,96.6636,VALID,249.075,VALID,21.9326,VALID,269,VALID,0,
2008-11-15, 08:45:00,VALID,916.181,VALID,0,VALID,95.7188,VALID,247.835,VALID,21.8644,VALID,256,VALID,0,
2008-11-15, 08:46:00,VALID,916.19,VALID,0,VALID,95.9833,VALID,246.256,VALID,21.8187,VALID,277,VALID,0,
2008-11-15, 08:47:00,VALID,916.179,VALID,0,VALID,95.603,VALID,245.984,VALID,21.8225,VALID,263,VALID,0,
2008-11-15, 08:48:00,VALID,916.202,VALID,0,VALID,95.0791,VALID,246.85,VALID,21.7765,VALID,282,VALID,0,
2008-11-15, 08:49:00,VALID,916.207,VALID,0,VALID,94.8261,VALID,249.313,VALID,21.7567,VALID,324,VALID,0,
2008-11-15, 08:50:00,VALID,916.214,VALID,0,VALID,94.9024,VALID,254.169,VALID,21.7473,VALID,310,VALID,0,
2008-11-15, 08:51:00,VALID,916.214,VALID,0,VALID,95.3983,VALID,253.405,VALID,21.7797,VALID,324,VALID,0,
2008-11-15, 08:52:00,VALID,916.225,VALID,0,VALID,95.7518,VALID,253.269,VALID,21.8349,VALID,11,VALID,0,
2008-11-15, 08:53:00,VALID,916.228,VALID,0,VALID,96.5974,VALID,253.116,VALID,21.9459,VALID,9,VALID,0,
2008-11-15, 08:54:00,VALID,916.228,VALID,0,VALID,96.3647,VALID,254.05,VALID,22.0135,VALID,9,VALID,0.0786577,
2008-11-15, 08:55:00,VALID,916.225,VALID,0,VALID,95.3576,VALID,254.899,VALID,22.004,VALID,14,VALID,0.637649,
2008-11-15, 08:56:00,VALID,916.236,VALID,0,VALID,95.5967,VALID,256.224,VALID,22.0598,VALID,2,VALID,0.180367,
2008-11-15, 08:57:00,VALID,916.244,VALID,0,VALID,94.5959,VALID,258.822,VALID,22.0987,VALID,308,VALID,0.545313,
2008-11-15, 08:58:00,VALID,916.254,VALID,0,VALID,94.6201,VALID,259.535,VALID,22.1047,VALID,19,VALID,0.627232,
2008-11-15, 08:59:00,VALID,916.255,VALID,0,VALID,94.6849,VALID,260.35,VALID,22.0719,VALID,11,VALID,0.649554,
2008-11-15, 09:00:00,VALID,916.269,VALID,0,VALID,95.4288,VALID,261.233,VALID,22.1637,VALID,11,VALID,0.409268,
2008-11-15, 09:01:00,VALID,916.273,VALID,0,VALID,94.0415,VALID,261.81,VALID,22.1076,VALID,17,VALID,0.276563,
2008-11-15, 09:02:00,VALID,916.282,VALID,0,VALID,93.833,VALID,262.558,VALID,22.0757,VALID,20,VALID,1.35649,
2008-11-15, 09:03:00,VALID,916.285,VALID,0,VALID,93.9105,VALID,264.392,VALID,22.0406,VALID,27,VALID,0.926314,
2008-11-15, 09:04:00,VALID,916.315,VALID,0,VALID,94.5641,VALID,267.312,VALID,22.063,VALID,26,VALID,1.09681,
2008-11-15, 09:05:00,VALID,916.304,VALID,0,VALID,94.4993,VALID,272.016,VALID,22.0335,VALID,4,VALID,0.498698,
2008-11-15, 09:06:00,VALID,916.302,VALID,0,VALID,95.5916,VALID,273.986,VALID,22.1383,VALID,357,VALID,0.477083,
2008-11-15, 09:07:00,VALID,916.327,VALID,0,VALID,95.9693,VALID,274.767,VALID,22.2056,VALID,360,VALID,0.289621,
2008-11-15, 09:08:00,VALID,916.325,VALID,0,VALID,95.4784,VALID,277.637,VALID,22.2156,VALID,355,VALID,0.528125,
2008-11-15, 09:09:00,VALID,916.326,VALID,0,VALID,95.3335,VALID,281.916,VALID,22.2056,VALID,330,VALID,0.57337,
2008-11-15, 09:10:00,VALID,916.337,VALID,0,VALID,96.3279,VALID,286.976,VALID,22.2478,VALID,328,VALID,0.13891,
2008-11-15, 09:11:00,VALID,916.343,VALID,0,VALID,96.8289,VALID,292.614,VALID,22.332,VALID,328,VALID,0,
2008-11-15, 09:12:00,VALID,916.337,VALID,0,VALID,96.8848,VALID,297.81,VALID,22.4651,VALID,351,VALID,0,
2008-11-15, 09:13:00,VALID,916.341,VALID,0,VALID,96.3762,VALID,302.513,VALID,22.585,VALID,352,VALID,0,
2008-11-15, 09:14:00,VALID,916.344,VALID,0,VALID,95.968,VALID,307.234,VALID,22.6437,VALID,356,VALID,0.133333,
2008-11-15, 09:15:00,VALID,916.349,VALID,0,VALID,94.8045,VALID,312.6,VALID,22.6768,VALID,329,VALID,0.278525,
2008-11-15, 09:16:00,VALID,916.354,VALID,0,VALID,94.3416,VALID,317.44,VALID,22.6576,VALID,291,VALID,0,
2008-11-15, 09:17:00,VALID,916.365,VALID,0,VALID,92.6097,VALID,321.838,VALID,22.644,VALID,310,VALID,0.367383,
2008-11-15, 09:18:00,VALID,916.372,VALID,0,VALID,92.7915,VALID,325.777,VALID,22.7025,VALID,354,VALID,0.0597747,
2008-11-15, 09:19:00,VALID,916.384,VALID,0,VALID,93.1984,VALID,330.073,VALID,22.8651,VALID,112,VALID,0.21875,
2008-11-15, 09:20:00,VALID,916.378,VALID,0,VALID,92.9136,VALID,334.658,VALID,22.9629,VALID,196,VALID,0.279514,
2008-11-15, 09:21:00,VALID,916.391,VALID,0,VALID,93.2112,VALID,339.447,VALID,23.0541,VALID,92,VALID,0.394717,
2008-11-15, 09:22:00,VALID,916.398,VALID,0,VALID,93.3955,VALID,344.558,VALID,23.1722,VALID,14,VALID,0.574219,
2008-11-15, 09:23:00,VALID,916.402,VALID,0,VALID,92.2422,VALID,349.72,VALID,23.1952,VALID,5,VALID,0.375908,
2008-11-15, 09:24:00,VALID,916.4,VALID,0,VALID,91.8874,VALID,354.899,VALID,23.2339,VALID,21,VALID,0,
2008-11-15, 09:25:00,VALID,916.394,VALID,0,VALID,91.1804,VALID,360.248,VALID,23.36,VALID,21,VALID,0,
2008-11-15, 09:26:00,VALID,916.381,VALID,0,VALID,89.4701,VALID,365.665,VALID,23.4636,VALID,283,VALID,0.21513,
2008-11-15, 09:27:00,VALID,916.38,VALID,0,VALID,89.5693,VALID,369.893,VALID,23.5195,VALID,14,VALID,0.401228,
2008-11-15, 09:28:00,VALID,916.352,VALID,0,VALID,89.3684,VALID,375.803,VALID,23.5266,VALID,18,VALID,0.508878,
2008-11-15, 09:29:00,VALID,916.349,VALID,0,VALID,88.8546,VALID,383.189,VALID,23.5124,VALID,28,VALID,0.703303,
2008-11-15, 09:30:00,VALID,916.358,VALID,0,VALID,87.9607,VALID,391.119,VALID,23.6001,VALID,353,VALID,0.386628,
2008-11-15, 09:31:00,VALID,916.344,VALID,0,VALID,86.6599,VALID,399.185,VALID,23.629,VALID,298,VALID,0.255716,
2008-11-15, 09:32:00,VALID,916.343,VALID,0,VALID,87.0909,VALID,406.012,VALID,23.6618,VALID,24,VALID,0.104725,
2008-11-15, 09:33:00,VALID,916.343,VALID,0,VALID,86.4449,VALID,413.534,VALID,23.6976,VALID,314,VALID,0.494922,
2008-11-15, 09:34:00,VALID,916.344,VALID,0,VALID,87.4775,VALID,420.394,VALID,23.6586,VALID,35,VALID,0.348292,
2008-11-15, 09:35:00,VALID,916.338,VALID,0,VALID,87.845,VALID,422.908,VALID,23.7333,VALID,358,VALID,0.143973,
2008-11-15, 09:36:00,VALID,916.343,VALID,0,VALID,85.9579,VALID,422.517,VALID,23.7885,VALID,282,VALID,0.485647,
2008-11-15, 09:37:00,VALID,916.344,VALID,0,VALID,86.5429,VALID,412.244,VALID,23.7947,VALID,341,VALID,0.652431,
2008-11-15, 09:38:00,VALID,916.338,VALID,0,VALID,86.2542,VALID,412.193,VALID,23.8503,VALID,333,VALID,0.452539,
2008-11-15, 09:39:00,VALID,916.328,VALID,0,VALID,85.7049,VALID,410.698,VALID,23.8048,VALID,18,VALID,0.570668,
2008-11-15, 09:40:00,VALID,916.331,VALID,0,VALID,86.6331,VALID,411.972,VALID,23.7271,VALID,26,VALID,0.78125,
2008-11-15, 09:41:00,VALID,916.33,VALID,0,VALID,87.8564,VALID,433.538,VALID,23.8015,VALID,7,VALID,0.238554,
2008-11-15, 09:42:00,VALID,916.317,VALID,0,VALID,86.5861,VALID,433.86,VALID,23.9025,VALID,325,VALID,0.711523,
2008-11-15, 09:43:00,VALID,916.319,VALID,0,VALID,85.9172,VALID,433.69,VALID,23.9087,VALID,273,VALID,0.0413707,
2008-11-15, 09:44:00,VALID,916.304,VALID,0,VALID,87.4381,VALID,424.809,VALID,23.9838,VALID,346,VALID,0.555273,
2008-11-15, 09:45:00,VALID,916.31,VALID,0,VALID,86.8646,VALID,421.481,VALID,24.0068,VALID,342,VALID,0.626715,
2008-11-15, 09:46:00,VALID,916.313,VALID,0,VALID,86.4678,VALID,425.93,VALID,23.9773,VALID,28,VALID,0.700694,
2008-11-15, 09:47:00,VALID,916.299,VALID,0,VALID,86.7463,VALID,426.575,VALID,23.8148,VALID,22,VALID,0.888715,
2008-11-15, 09:48:00,VALID,916.316,VALID,0,VALID,87.8005,VALID,413.806,VALID,23.811,VALID,13,VALID,1.02102,
2008-11-15, 09:49:00,VALID,916.323,VALID,0,VALID,86.4081,VALID,403.04,VALID,23.8119,VALID,3,VALID,1.45711,
2008-11-15, 09:50:00,VALID,916.322,VALID,0,VALID,85.4264,VALID,386.671,VALID,23.7442,VALID,360,VALID,1.61566,
2008-11-15, 09:51:00,VALID,916.318,VALID,0,VALID,85.7316,VALID,391.731,VALID,23.6234,VALID,18,VALID,1.38186,
2008-11-15, 09:52:00,VALID,916.299,VALID,0,VALID,85.0246,VALID,387.163,VALID,23.4486,VALID,28,VALID,1.79444,
2008-11-15, 09:53:00,VALID,916.319,VALID,0,VALID,87.1253,VALID,380.439,VALID,23.2631,VALID,20,VALID,1.57449,
2008-11-15, 09:54:00,VALID,916.302,VALID,0,VALID,87.8971,VALID,376.957,VALID,23.3287,VALID,18,VALID,1.48266,
2008-11-15, 09:55:00,VALID,916.311,VALID,0,VALID,87.6148,VALID,372.101,VALID,23.2859,VALID,11,VALID,1.64358,
2008-11-15, 09:56:00,VALID,916.299,VALID,0,VALID,88.0027,VALID,368.841,VALID,23.2667,VALID,30,VALID,1.69754,
2008-11-15, 09:57:00,VALID,916.318,VALID,0,VALID,89.0568,VALID,370.641,VALID,23.3382,VALID,357,VALID,0.337695,
2008-11-15, 09:58:00,VALID,916.297,VALID,0,VALID,89.5235,VALID,372.135,VALID,23.4773,VALID,28,VALID,0.756037,
2008-11-15, 09:59:00,VALID,916.28,VALID,0,VALID,88.2176,VALID,374.105,VALID,23.5981,VALID,9,VALID,1.10778,
2008-11-15, 10:00:00,VALID,916.28,VALID,0,VALID,88.8839,VALID,376.159,VALID,23.5972,VALID,26,VALID,1.19066,
2008-11-15, 10:01:00,VALID,916.276,VALID,0,VALID,89.5082,VALID,376.991,VALID,23.653,VALID,19,VALID,1.54797,
2008-11-15, 10:02:00,VALID,916.278,VALID,0,VALID,87.9276,VALID,374.784,VALID,23.6793,VALID,3,VALID,1.02548,
2008-11-15, 10:03:00,VALID,916.271,VALID,0,VALID,88.5075,VALID,372.729,VALID,23.7378,VALID,20,VALID,1.03374,
2008-11-15, 10:04:00,VALID,916.27,VALID,0,VALID,87.9251,VALID,371.761,VALID,23.7316,VALID,13,VALID,1.10281,
2008-11-15, 10:05:00,VALID,916.263,VALID,0,VALID,88.4554,VALID,372.118,VALID,23.7962,VALID,27,VALID,1.05487,
2008-11-15, 10:06:00,VALID,916.26,VALID,0,VALID,88.4007,VALID,370.827,VALID,23.8742,VALID,28,VALID,1.22972,
2008-11-15, 10:07:00,VALID,916.263,VALID,0,VALID,86.581,VALID,368.348,VALID,23.8594,VALID,14,VALID,1.11261,
2008-11-15, 10:08:00,VALID,916.257,VALID,0,VALID,86.183,VALID,367.431,VALID,23.8243,VALID,337,VALID,0.605168,
2008-11-15, 10:09:00,VALID,916.262,VALID,0,VALID,84.5732,VALID,364.612,VALID,23.8048,VALID,296,VALID,0.914426,
2008-11-15, 10:10:00,VALID,916.253,VALID,0,VALID,84.4829,VALID,359.416,VALID,23.7655,VALID,315,VALID,0.2371,
2008-11-15, 10:11:00,VALID,916.241,VALID,0,VALID,84.0976,VALID,354.509,VALID,23.7915,VALID,283,VALID,0.356424,
2008-11-15, 10:12:00,VALID,916.236,VALID,0,VALID,85.8028,VALID,347.411,VALID,23.8718,VALID,18,VALID,0.451601,
2008-11-15, 10:13:00,VALID,916.226,VALID,0,VALID,86.0787,VALID,339.719,VALID,23.9604,VALID,56,VALID,0.114453,
2008-11-15, 10:14:00,VALID,916.233,VALID,0,VALID,85.5396,VALID,334.319,VALID,24.0192,VALID,92,VALID,0.0118886,
2008-11-15, 10:15:00,VALID,916.241,VALID,0,VALID,84.5223,VALID,335.915,VALID,24.1445,VALID,37,VALID,0,
2008-11-15, 10:16:00,VALID,916.226,VALID,0,VALID,84.8999,VALID,340.143,VALID,24.3102,VALID,2,VALID,0.296317,
2008-11-15, 10:17:00,VALID,916.228,VALID,0,VALID,83.5432,VALID,341.06,VALID,24.333,VALID,14,VALID,1.00781,
2008-11-15, 10:18:00,VALID,916.224,VALID,0,VALID,83.594,VALID,341.586,VALID,24.1637,VALID,27,VALID,0.883523,
2008-11-15, 10:19:00,VALID,916.219,VALID,0,VALID,84.4295,VALID,341.23,VALID,24.1932,VALID,32,VALID,0.750744,
2008-11-15, 10:20:00,VALID,916.223,VALID,0,VALID,83.9475,VALID,340.449,VALID,24.2777,VALID,2,VALID,0.49858,
2008-11-15, 10:21:00,VALID,916.215,VALID,0,VALID,83.8242,VALID,339.26,VALID,24.2807,VALID,332,VALID,0.126529,
2008-11-15, 10:22:00,VALID,916.217,VALID,0,VALID,84.3481,VALID,334.42,VALID,24.3034,VALID,331,VALID,0.22603,
2008-11-15, 10:23:00,VALID,916.223,VALID,0,VALID,83.9984,VALID,325.556,VALID,24.4272,VALID,307,VALID,0.120617,
2008-11-15, 10:24:00,VALID,916.223,VALID,0,VALID,82.7153,VALID,323.4,VALID,24.4376,VALID,328,VALID,0.537946,
2008-11-15, 10:25:00,VALID,916.23,VALID,0,VALID,84.6634,VALID,327.306,VALID,24.4148,VALID,21,VALID,0.585938,
2008-11-15, 10:26:00,VALID,916.23,VALID,0,VALID,85.4874,VALID,331.704,VALID,24.4308,VALID,24,VALID,0.587536,
2008-11-15, 10:27:00,VALID,916.242,VALID,0,VALID,85.3348,VALID,334.641,VALID,24.4727,VALID,2,VALID,0.209339,
2008-11-15, 10:28:00,VALID,916.233,VALID,0,VALID,84.0912,VALID,338.547,VALID,24.4701,VALID,20,VALID,0.521257,
2008-11-15, 10:29:00,VALID,916.237,VALID,0,VALID,85.3412,VALID,342.249,VALID,24.3306,VALID,26,VALID,0.934338,
2008-11-15, 10:30:00,VALID,916.229,VALID,0,VALID,86.5111,VALID,343.539,VALID,24.3203,VALID,17,VALID,0.824314,
2008-11-15, 10:31:00,VALID,916.237,VALID,0,VALID,87.0744,VALID,345.662,VALID,24.3164,VALID,19,VALID,0.559048,
2008-11-15, 10:32:00,VALID,916.245,VALID,0,VALID,87.1113,VALID,347.088,VALID,24.395,VALID,10,VALID,0.413154,
2008-11-15, 10:33:00,VALID,916.243,VALID,0,VALID,85.331,VALID,346.783,VALID,24.4961,VALID,333,VALID,0.26944,
2008-11-15, 10:34:00,VALID,916.25,VALID,0,VALID,84.8732,VALID,346.715,VALID,24.5344,VALID,360,VALID,0.244727,
2008-11-15, 10:35:00,VALID,916.26,VALID,0,VALID,84.0187,VALID,346.154,VALID,24.5191,VALID,340,VALID,0.37686,
2008-11-15, 10:36:00,VALID,916.264,VALID,0,VALID,85.3997,VALID,349.941,VALID,24.5153,VALID,24,VALID,0.682958,
2008-11-15, 10:37:00,VALID,916.267,VALID,0,VALID,85.6438,VALID,357.039,VALID,24.5891,VALID,17,VALID,1.07906,
2008-11-15, 10:38:00,VALID,916.263,VALID,0,VALID,84.4918,VALID,364.477,VALID,24.5037,VALID,30,VALID,1.1209,
2008-11-15, 10:39:00,VALID,916.268,VALID,0,VALID,85.0131,VALID,370.776,VALID,24.4059,VALID,30,VALID,1.5566,
2008-11-15, 10:40:00,VALID,916.254,VALID,0,VALID,84.741,VALID,374.427,VALID,24.257,VALID,33,VALID,1.0655,
2008-11-15, 10:41:00,VALID,916.262,VALID,0,VALID,85.6744,VALID,378.554,VALID,24.2443,VALID,343,VALID,0.653942,
2008-11-15, 10:42:00,VALID,916.244,VALID,0,VALID,85.5981,VALID,381.389,VALID,24.3057,VALID,13,VALID,0.428445,
2008-11-15, 10:43:00,VALID,916.247,VALID,0,VALID,85.5014,VALID,381.474,VALID,24.3554,VALID,30,VALID,1.23651,